• In Portugal
  • List of Countries
  • For 7 days
  • Water Temperature
  • Satellite Maps
  • Weather Map
  • Weather Widgets
  • user-avatar
    Login

    Hourly Weather Jaú

    Today, 25 September, Monday

    Time Temperature Precipitation Wind Pressure Humidity
    00:00 +33°C° 0 mm 1 mps 755 mmHg 56%
    01:00 +32°C° 0 mm 1 mps 755 mmHg 56%
    02:00 +32°C° 0 mm 1 mps 754 mmHg 57%
    03:00 +32°C° 0 mm 1 mps 754 mmHg 61%
    04:00 +31°C° 0 mm 1 mps 754 mmHg 61%
    05:00 +31°C° 0 mm 1 mps 755 mmHg 62%
    06:00 +31°C° 0 mm 1 mps 755 mmHg 63%
    07:00 +33°C° 0 mm 1 mps 755 mmHg 57%
    08:00 +34°C° 0 mm 1 mps 755 mmHg 52%
    09:00 +36°C° 0 mm 1 mps 755 mmHg 46%
    10:00 +37°C° 0 mm 1 mps 755 mmHg 42%
    11:00 +39°C° 0 mm 1 mps 755 mmHg 37%
    12:00 +40°C° 0 mm 2 mps 755 mmHg 32%
    13:00 +40°C° 0 mm 2 mps 754 mmHg 29%
    14:00 +42°C° 0 mm 3 mps 754 mmHg 26%
    15:00 +42°C° 0 mm 4 mps 754 mmHg 23%
    16:00 +41°C° 0 mm 4 mps 754 mmHg 27%
    17:00 +39°C° 0 mm 3 mps 754 mmHg 31%
    18:00 +37°C° 0 mm 3 mps 754 mmHg 35%
    19:00 +37°C° 0 mm 3 mps 754 mmHg 36%
    20:00 +36°C° 0 mm 3 mps 754 mmHg 38%
    21:00 +36°C° 0 mm 2 mps 755 mmHg 40%
    22:00 +35°C° 0 mm 2 mps 755 mmHg 42%
    23:00 +34°C° 0 mm 2 mps 754 mmHg 44%

    Tomorrow, 26 September, Tuesday

    Time Temperature Precipitation Wind Pressure Humidity
    00:00 +32°C° 0 mm 1 mps 754 mmHg 45%
    01:00 +32°C° 0 mm 1 mps 754 mmHg 46%
    02:00 +31°C° 0 mm 1 mps 754 mmHg 46%
    03:00 +31°C° 0 mm 1 mps 754 mmHg 47%
    04:00 +31°C° 0 mm 1 mps 754 mmHg 46%
    05:00 +31°C° 0 mm 1 mps 754 mmHg 46%
    06:00 +31°C° 0 mm 1 mps 755 mmHg 45%
    07:00 +34°C° 0 mm 2 mps 755 mmHg 40%
    08:00 +36°C° 0 mm 2 mps 755 mmHg 34%
    09:00 +38°C° 0 mm 2 mps 755 mmHg 29%
    10:00 +39°C° 0 mm 2 mps 755 mmHg 26%
    11:00 +40°C° 0 mm 2 mps 755 mmHg 22%
    12:00 +42°C° 0 mm 3 mps 755 mmHg 19%
    13:00 +41°C° 0 mm 2 mps 754 mmHg 18%
    14:00 +41°C° 0 mm 2 mps 754 mmHg 18%
    15:00 +42°C° 0 mm 2 mps 753 mmHg 17%
    16:00 +40°C° 0 mm 2 mps 754 mmHg 20%
    17:00 +39°C° 0 mm 2 mps 754 mmHg 23%
    18:00 +38°C° 0 mm 2 mps 754 mmHg 26%
    19:00 +37°C° 0 mm 2 mps 754 mmHg 28%
    20:00 +36°C° 0 mm 2 mps 754 mmHg 29%
    21:00 +36°C° 0 mm 3 mps 755 mmHg 31%
    22:00 +36°C° 0 mm 3 mps 755 mmHg 35%
    23:00 +35°C° 0 mm 3 mps 754 mmHg 38%

    Day after tomorrow, 27 September, Wednesday

    Time Temperature Precipitation Wind Pressure Humidity
    00:00 +35°C° 0 mm 3 mps 754 mmHg 41%
    01:00 +34°C° 0 mm 3 mps 754 mmHg 42%
    02:00 +34°C° 0 mm 2 mps 754 mmHg 44%
    03:00 +32°C° 0 mm 2 mps 754 mmHg 45%
    04:00 +32°C° 0 mm 2 mps 754 mmHg 43%
    05:00 +32°C° 0 mm 2 mps 755 mmHg 41%
    06:00 +32°C° 0 mm 2 mps 755 mmHg 39%
    07:00 +33°C° 0 mm 1 mps 755 mmHg 35%
    08:00 +35°C° 0 mm 1 mps 756 mmHg 30%
    09:00 +37°C° 0 mm 1 mps 756 mmHg 25%
    10:00 +39°C° 0 mm 1 mps 756 mmHg 23%
    11:00 +40°C° 0 mm 1 mps 756 mmHg 21%
    12:00 +41°C° 0 mm 1 mps 756 mmHg 19%
    13:00 +41°C° 0 mm 2 mps 755 mmHg 19%
    14:00 +41°C° 0 mm 2 mps 755 mmHg 20%
    15:00 +42°C° 0 mm 3 mps 754 mmHg 20%
    16:00 +40°C° 0 mm 3 mps 754 mmHg 23%
    17:00 +39°C° 0 mm 3 mps 754 mmHg 27%
    18:00 +38°C° 0 mm 3 mps 754 mmHg 30%
    19:00 +37°C° 0 mm 3 mps 755 mmHg 34%
    20:00 +37°C° 0 mm 3 mps 755 mmHg 37%
    21:00 +36°C° 0 mm 3 mps 755 mmHg 40%
    22:00 +35°C° 0 mm 3 mps 755 mmHg 43%
    23:00 +35°C° 0 mm 2 mps 755 mmHg 45%

    28 September, Thursday

    Time Temperature Precipitation Wind Pressure Humidity
    00:00 +34°C° 0 mm 2 mps 754 mmHg 47%
    01:00 +34°C° 0 mm 2 mps 754 mmHg 47%
    02:00 +32°C° 0 mm 1 mps 754 mmHg 47%
    03:00 +32°C° 0 mm 1 mps 754 mmHg 46%
    04:00 +32°C° 0 mm 1 mps 754 mmHg 46%
    05:00 +32°C° 0 mm 1 mps 755 mmHg 45%
    06:00 +32°C° 0 mm 2 mps 755 mmHg 44%
    07:00 +34°C° 0 mm 2 mps 756 mmHg 39%
    08:00 +36°C° 0 mm 2 mps 756 mmHg 35%
    09:00 +38°C° 0 mm 2 mps 756 mmHg 30%
    10:00 +39°C° 0 mm 2 mps 756 mmHg 27%
    11:00 +40°C° 0 mm 2 mps 755 mmHg 24%
    12:00 +41°C° 0 mm 2 mps 755 mmHg 21%
    13:00 +41°C° 0 mm 2 mps 755 mmHg 20%
    14:00 +41°C° 0 mm 2 mps 754 mmHg 20%
    15:00 +43°C° 0 mm 3 mps 754 mmHg 19%
    16:00 +40°C° 0 mm 3 mps 754 mmHg 22%
    17:00 +39°C° 0 mm 3 mps 754 mmHg 26%
    18:00 +37°C° 0 mm 2 mps 754 mmHg 29%
    19:00 +37°C° 0 mm 2 mps 754 mmHg 31%
    20:00 +36°C° 0 mm 2 mps 755 mmHg 33%
    21:00 +34°C° 0 mm 1 mps 755 mmHg 36%
    22:00 +33°C° 0 mm 1 mps 755 mmHg 36%
    23:00 +33°C° 0 mm 1 mps 754 mmHg 37%

    29 September, Friday

    Time Temperature Precipitation Wind Pressure Humidity
    00:00 +32°C° 0 mm 1 mps 754 mmHg 38%
    01:00 +32°C° 0 mm 1 mps 754 mmHg 38%
    02:00 +32°C° 0 mm 2 mps 754 mmHg 38%
    03:00 +32°C° 0 mm 2 mps 753 mmHg 38%
    04:00 +33°C° 0 mm 3 mps 754 mmHg 37%
    05:00 +33°C° 0 mm 3 mps 754 mmHg 36%
    06:00 +34°C° 0 mm 3 mps 754 mmHg 36%
    07:00 +35°C° 0 mm 3 mps 755 mmHg 31%
    08:00 +37°C° 0 mm 3 mps 755 mmHg 26%
    09:00 +39°C° 0 mm 3 mps 755 mmHg 21%
    10:00 +40°C° 0 mm 2 mps 755 mmHg 20%
    11:00 +41°C° 0 mm 2 mps 754 mmHg 18%
    12:00 +42°C° 0 mm 2 mps 754 mmHg 17%
    13:00 +42°C° 0 mm 2 mps 753 mmHg 16%
    14:00 +43°C° 0 mm 3 mps 753 mmHg 16%
    15:00 +43°C° 0 mm 3 mps 752 mmHg 16%
    16:00 +42°C° 0 mm 3 mps 753 mmHg 20%
    17:00 +39°C° 0 mm 2 mps 753 mmHg 24%
    18:00 +38°C° 0 mm 2 mps 753 mmHg 28%
    19:00 +37°C° 0 mm 2 mps 753 mmHg 30%
    20:00 +36°C° 0 mm 2 mps 754 mmHg 33%
    21:00 +35°C° 0 mm 2 mps 754 mmHg 36%
    22:00 +34°C° 0 mm 1 mps 754 mmHg 39%
    23:00 +33°C° 0 mm 1 mps 754 mmHg 42%

    30 September, Saturday

    Time Temperature Precipitation Wind Pressure Humidity
    00:00 +30°C° 0 mm 0 mps 753 mmHg 46%
    01:00 +32°C° 0 mm 1 mps 753 mmHg 46%
    02:00 +31°C° 0 mm 1 mps 753 mmHg 46%
    03:00 +31°C° 0 mm 1 mps 753 mmHg 47%
    04:00 +31°C° 0 mm 1 mps 754 mmHg 46%
    05:00 +31°C° 0 mm 1 mps 754 mmHg 46%
    06:00 +31°C° 0 mm 1 mps 754 mmHg 45%
    07:00 +33°C° 0 mm 1 mps 755 mmHg 40%
    08:00 +35°C° 0 mm 1 mps 755 mmHg 35%
    09:00 +37°C° 0 mm 1 mps 755 mmHg 31%
    10:00 +39°C° 0 mm 1 mps 755 mmHg 29%
    11:00 +39°C° 0 mm 1 mps 755 mmHg 26%
    12:00 +40°C° 0 mm 1 mps 755 mmHg 24%
    13:00 +41°C° 0 mm 2 mps 754 mmHg 23%
    14:00 +41°C° 0 mm 2 mps 754 mmHg 23%
    15:00 +42°C° 0 mm 3 mps 754 mmHg 22%
    16:00 +40°C° 0 mm 3 mps 754 mmHg 26%
    17:00 +39°C° 0 mm 3 mps 754 mmHg 29%
    18:00 +38°C° 0 mm 4 mps 754 mmHg 33%
    19:00 +37°C° 0 mm 4 mps 754 mmHg 35%
    20:00 +37°C° 0 mm 3 mps 755 mmHg 37%
    21:00 +36°C° 0 mm 3 mps 755 mmHg 39%
    22:00 +36°C° 0 mm 3 mps 755 mmHg 40%
    23:00 +35°C° 0 mm 3 mps 755 mmHg 41%
    Show more